GLD769 SBIH-SBHT

Flight info

Callsign GLD769
Flight time N/A
Altitude 7000
Route FAVOR Z13 EVRIS
Aircraft C208/L-SDFGR/C

Departure

Time N/A
Airport Itaituba Airport (SBIH)

Arrival

Time 2026-05-03 21:46
Airport Altamira Interstate Airport (SBHT)
Time Latitude Longitude Altitude Speed Heading
2026-05-03 20:15 -4.11682 -55.53014 7014 ft 154 kts 76°
2026-05-03 20:15 -4.11404 -55.51974 7015 ft 155 kts 76°
2026-05-03 20:15 -4.11129 -55.50939 7016 ft 153 kts 76°
2026-05-03 20:15 -4.10853 -55.49904 7017 ft 154 kts 76°
2026-05-03 20:16 -4.10575 -55.48865 7017 ft 155 kts 76°
2026-05-03 20:16 -4.10299 -55.47820 7017 ft 155 kts 76°
2026-05-03 20:16 -4.10021 -55.46780 7013 ft 154 kts 76°
2026-05-03 20:16 -4.09743 -55.45738 7018 ft 155 kts 76°
2026-05-03 20:17 -4.09469 -55.44710 7017 ft 155 kts 76°
2026-05-03 20:17 -4.09191 -55.43667 7016 ft 155 kts 76°
2026-05-03 20:17 -4.08913 -55.42623 7013 ft 155 kts 76°
2026-05-03 20:17 -4.08636 -55.41584 7020 ft 154 kts 76°
2026-05-03 20:18 -4.08359 -55.40549 7017 ft 154 kts 76°
2026-05-03 20:18 -4.08084 -55.39508 7012 ft 155 kts 76°
2026-05-03 20:18 -4.07805 -55.38469 7011 ft 154 kts 76°
2026-05-03 20:18 -4.07532 -55.37441 7012 ft 152 kts 76°
2026-05-03 20:19 -4.07256 -55.36415 6969 ft 154 kts 77°
2026-05-03 20:19 -4.06982 -55.35367 6897 ft 155 kts 77°
2026-05-03 20:19 -4.06713 -55.34327 6896 ft 154 kts 76°
2026-05-03 20:19 -4.06438 -55.33285 6893 ft 154 kts 77°
2026-05-03 20:20 -4.06165 -55.32248 6892 ft 154 kts 77°
2026-05-03 20:20 -4.05895 -55.31213 6885 ft 152 kts 77°
2026-05-03 20:20 -4.05626 -55.30189 6883 ft 152 kts 76°
2026-05-03 20:20 -4.05358 -55.29167 6890 ft 151 kts 77°
2026-05-03 20:21 -4.05094 -55.28159 6883 ft 152 kts 77°
2026-05-03 20:21 -4.04825 -55.27135 6889 ft 152 kts 77°
2026-05-03 20:21 -4.04556 -55.26109 6884 ft 153 kts 77°
2026-05-03 20:21 -4.04286 -55.25080 6885 ft 152 kts 77°
2026-05-03 20:22 -4.04016 -55.24051 6887 ft 153 kts 77°
2026-05-03 20:22 -4.03746 -55.23023 6885 ft 152 kts 77°
2026-05-03 20:22 -4.03477 -55.22000 6881 ft 152 kts 77°
2026-05-03 20:22 -4.03210 -55.20980 6885 ft 152 kts 77°
2026-05-03 20:23 -4.02941 -55.19955 6883 ft 153 kts 76°
2026-05-03 20:23 -4.02671 -55.18924 6878 ft 153 kts 77°
2026-05-03 20:23 -4.02401 -55.17897 6877 ft 152 kts 77°
2026-05-03 20:23 -4.02132 -55.16870 6886 ft 153 kts 77°
2026-05-03 20:24 -4.01860 -55.15834 6887 ft 154 kts 77°
2026-05-03 20:24 -4.01586 -55.14792 6885 ft 155 kts 77°
2026-05-03 20:24 -4.01314 -55.13753 6881 ft 154 kts 77°
2026-05-03 20:24 -4.01042 -55.12718 6883 ft 153 kts 77°
2026-05-03 20:25 -4.00770 -55.11682 6882 ft 154 kts 77°
2026-05-03 20:25 -4.00498 -55.10648 6878 ft 153 kts 77°
2026-05-03 20:25 -4.00228 -55.09616 6885 ft 153 kts 77°
2026-05-03 20:25 -3.99960 -55.08599 6885 ft 153 kts 77°
2026-05-03 20:26 -3.99688 -55.07567 6882 ft 154 kts 77°
2026-05-03 20:26 -3.99416 -55.06529 6885 ft 154 kts 77°
2026-05-03 20:26 -3.99145 -55.05495 6883 ft 154 kts 77°
2026-05-03 20:26 -3.98874 -55.04460 6879 ft 153 kts 77°
2026-05-03 20:27 -3.98603 -55.03427 6888 ft 153 kts 77°
2026-05-03 20:27 -3.98331 -55.02398 6888 ft 154 kts 77°
2026-05-03 20:27 -3.98148 -55.01698 6886 ft 154 kts 77°
2026-05-03 20:27 -3.97875 -55.00658 6889 ft 155 kts 77°
2026-05-03 20:28 -3.97605 -54.99627 6887 ft 155 kts 77°
2026-05-03 20:28 -3.97330 -54.98579 6885 ft 156 kts 77°
2026-05-03 20:28 -3.97053 -54.97532 6884 ft 155 kts 77°
2026-05-03 20:28 -3.96780 -54.96494 6884 ft 154 kts 77°
2026-05-03 20:29 -3.96509 -54.95457 6881 ft 154 kts 77°
2026-05-03 20:29 -3.96237 -54.94422 6882 ft 154 kts 77°
2026-05-03 20:29 -3.95965 -54.93386 6880 ft 154 kts 77°
2026-05-03 20:29 -3.95692 -54.92349 6879 ft 154 kts 77°
2026-05-03 20:30 -3.95420 -54.91312 6887 ft 154 kts 77°
2026-05-03 20:30 -3.95147 -54.90272 6889 ft 155 kts 77°
2026-05-03 20:30 -3.94871 -54.89232 6886 ft 154 kts 77°
2026-05-03 20:30 -3.94602 -54.88208 6888 ft 154 kts 77°
2026-05-03 20:31 -3.94331 -54.87174 6888 ft 153 kts 77°
2026-05-03 20:31 -3.94062 -54.86146 6885 ft 152 kts 77°
2026-05-03 20:31 -3.93791 -54.85118 6885 ft 153 kts 77°
2026-05-03 20:31 -3.93521 -54.84087 6889 ft 153 kts 77°
2026-05-03 20:32 -3.93249 -54.83059 6888 ft 153 kts 77°
2026-05-03 20:32 -3.92980 -54.82032 6886 ft 152 kts 76°
2026-05-03 20:32 -3.92710 -54.81007 6885 ft 153 kts 77°
2026-05-03 20:32 -3.92440 -54.79980 6887 ft 152 kts 77°
2026-05-03 20:33 -3.92174 -54.78964 6884 ft 151 kts 77°
2026-05-03 20:33 -3.91907 -54.77951 6887 ft 150 kts 77°
2026-05-03 20:33 -3.91639 -54.76933 6889 ft 152 kts 77°
2026-05-03 20:33 -3.91369 -54.75900 6882 ft 153 kts 77°
2026-05-03 20:34 -3.91097 -54.74869 6883 ft 153 kts 77°
2026-05-03 20:34 -3.90827 -54.73847 6890 ft 151 kts 77°
2026-05-03 20:34 -3.90559 -54.72825 6889 ft 152 kts 77°
2026-05-03 20:34 -3.90291 -54.71805 6885 ft 152 kts 76°
2026-05-03 20:35 -3.90024 -54.70796 6889 ft 152 kts 77°
2026-05-03 20:35 -3.89756 -54.69770 6884 ft 152 kts 76°
2026-05-03 20:35 -3.89486 -54.68747 6879 ft 152 kts 76°
2026-05-03 20:35 -3.89216 -54.67719 6888 ft 152 kts 76°
2026-05-03 20:36 -3.88945 -54.66692 6888 ft 153 kts 76°
2026-05-03 20:36 -3.88674 -54.65660 6886 ft 153 kts 76°
2026-05-03 20:36 -3.88402 -54.64629 6888 ft 153 kts 76°
2026-05-03 20:36 -3.88131 -54.63597 6883 ft 153 kts 76°
2026-05-03 20:37 -3.87860 -54.62566 6889 ft 153 kts 76°
2026-05-03 20:37 -3.87588 -54.61539 6893 ft 153 kts 76°
2026-05-03 20:37 -3.87317 -54.60504 6892 ft 154 kts 76°
2026-05-03 20:37 -3.87044 -54.59464 6895 ft 155 kts 76°
2026-05-03 20:38 -3.86770 -54.58426 6896 ft 157 kts 77°
2026-05-03 20:38 -3.86490 -54.57366 6892 ft 158 kts 77°
2026-05-03 20:38 -3.86212 -54.56307 6891 ft 157 kts 76°
2026-05-03 20:38 -3.85935 -54.55256 6891 ft 155 kts 76°
2026-05-03 20:39 -3.85660 -54.54212 6891 ft 155 kts 77°
2026-05-03 20:39 -3.85386 -54.53170 6893 ft 155 kts 77°
2026-05-03 20:39 -3.85112 -54.52129 6890 ft 155 kts 76°
2026-05-03 20:39 -3.84837 -54.51086 6883 ft 155 kts 76°
2026-05-03 20:40 -3.84562 -54.50044 6886 ft 155 kts 76°
2026-05-03 20:40 -3.84288 -54.48999 6887 ft 155 kts 76°
2026-05-03 20:40 -3.84012 -54.47953 6885 ft 155 kts 76°
2026-05-03 20:40 -3.83736 -54.46906 6888 ft 155 kts 76°
2026-05-03 20:41 -3.83462 -54.45863 6888 ft 155 kts 76°
2026-05-03 20:41 -3.83186 -54.44816 6892 ft 155 kts 76°
2026-05-03 20:41 -3.82915 -54.43787 6887 ft 155 kts 76°
2026-05-03 20:41 -3.82640 -54.42744 6890 ft 154 kts 76°
2026-05-03 20:42 -3.82366 -54.41706 6893 ft 154 kts 76°
2026-05-03 20:42 -3.82094 -54.40671 6893 ft 154 kts 76°
2026-05-03 20:42 -3.81822 -54.39640 6892 ft 154 kts 76°
2026-05-03 20:42 -3.81549 -54.38604 6890 ft 154 kts 77°
2026-05-03 20:43 -3.81277 -54.37568 6892 ft 153 kts 76°
2026-05-03 20:43 -3.81005 -54.36540 6887 ft 153 kts 76°
2026-05-03 20:43 -3.80735 -54.35517 6894 ft 152 kts 77°
2026-05-03 20:43 -3.80466 -54.34496 6895 ft 152 kts 77°
2026-05-03 20:44 -3.80196 -54.33471 6888 ft 152 kts 76°
2026-05-03 20:44 -3.79926 -54.32444 6896 ft 153 kts 76°
2026-05-03 20:44 -3.79650 -54.31397 6907 ft 158 kts 76°
2026-05-03 20:44 -3.79364 -54.30315 6907 ft 164 kts 77°
2026-05-03 20:45 -3.79074 -54.29209 6906 ft 163 kts 77°
2026-05-03 20:45 -3.78786 -54.28118 6905 ft 161 kts 76°
2026-05-03 20:45 -3.78500 -54.27037 6903 ft 160 kts 76°
2026-05-03 20:45 -3.78218 -54.25966 6899 ft 158 kts 76°
2026-05-03 20:46 -3.77942 -54.24918 6896 ft 157 kts 76°
2026-05-03 20:46 -3.77663 -54.23868 6893 ft 155 kts 77°
2026-05-03 20:46 -3.77389 -54.22826 6889 ft 154 kts 77°
2026-05-03 20:46 -3.77117 -54.21794 6894 ft 153 kts 76°
2026-05-03 20:47 -3.76845 -54.20763 6889 ft 153 kts 76°
2026-05-03 20:47 -3.76573 -54.19728 6887 ft 154 kts 77°
2026-05-03 20:47 -3.76298 -54.18688 6897 ft 154 kts 76°
2026-05-03 20:47 -3.76024 -54.17649 6898 ft 155 kts 77°
2026-05-03 20:48 -3.75749 -54.16607 6901 ft 155 kts 77°
2026-05-03 20:48 -3.75474 -54.15561 6905 ft 156 kts 77°
2026-05-03 20:48 -3.75197 -54.14512 6904 ft 156 kts 76°
2026-05-03 20:48 -3.74920 -54.13463 6903 ft 156 kts 76°
2026-05-03 20:49 -3.74643 -54.12416 6900 ft 156 kts 77°
2026-05-03 20:49 -3.74367 -54.11366 6901 ft 156 kts 77°
2026-05-03 20:49 -3.74091 -54.10321 6900 ft 155 kts 77°
2026-05-03 20:49 -3.73817 -54.09283 6905 ft 154 kts 76°
2026-05-03 20:50 -3.73541 -54.08239 6903 ft 155 kts 76°
2026-05-03 20:50 -3.73265 -54.07193 6902 ft 156 kts 77°
2026-05-03 20:50 -3.72989 -54.06144 6902 ft 156 kts 77°
2026-05-03 20:50 -3.72711 -54.05095 6897 ft 156 kts 77°
2026-05-03 20:51 -3.72436 -54.04048 6897 ft 155 kts 76°
2026-05-03 20:51 -3.72162 -54.03014 6906 ft 153 kts 76°
2026-05-03 20:51 -3.71888 -54.01979 6902 ft 154 kts 77°
2026-05-03 20:51 -3.71615 -54.00939 6903 ft 155 kts 77°
2026-05-03 20:52 -3.71340 -53.99898 6906 ft 155 kts 76°
2026-05-03 20:52 -3.71066 -53.98858 6908 ft 154 kts 76°
2026-05-03 20:52 -3.70790 -53.97819 6905 ft 154 kts 77°
2026-05-03 20:52 -3.70517 -53.96784 6905 ft 154 kts 77°
2026-05-03 20:53 -3.70245 -53.95749 6906 ft 154 kts 77°
2026-05-03 20:53 -3.69971 -53.94714 6902 ft 153 kts 76°
2026-05-03 20:53 -3.69702 -53.93696 6906 ft 151 kts 76°
2026-05-03 20:53 -3.69433 -53.92679 6909 ft 152 kts 76°
2026-05-03 20:54 -3.69166 -53.91665 6908 ft 153 kts 76°
2026-05-03 20:54 -3.68622 -53.89606 6907 ft 153 kts 76°
2026-05-03 20:54 -3.68350 -53.88575 6905 ft 153 kts 76°
2026-05-03 20:55 -3.68077 -53.87540 6906 ft 154 kts 75°
2026-05-03 20:55 -3.67803 -53.86506 6907 ft 154 kts 75°
2026-05-03 20:55 -3.67531 -53.85473 6906 ft 154 kts 76°
2026-05-03 20:55 -3.67256 -53.84437 6903 ft 154 kts 76°
2026-05-03 20:56 -3.66982 -53.83398 6903 ft 154 kts 76°
2026-05-03 20:56 -3.66707 -53.82361 6902 ft 154 kts 76°
2026-05-03 20:56 -3.66433 -53.81324 6895 ft 154 kts 76°
2026-05-03 20:56 -3.66159 -53.80285 6902 ft 155 kts 76°
2026-05-03 20:57 -3.65885 -53.79243 6898 ft 155 kts 76°
2026-05-03 20:57 -3.65611 -53.78212 6900 ft 155 kts 76°
2026-05-03 20:57 -3.65335 -53.77169 6904 ft 155 kts 76°
2026-05-03 20:57 -3.65059 -53.76122 6904 ft 155 kts 76°
2026-05-03 20:58 -3.64783 -53.75077 6905 ft 156 kts 76°
2026-05-03 20:58 -3.64505 -53.74026 6908 ft 156 kts 76°
2026-05-03 20:58 -3.64228 -53.72977 6908 ft 156 kts 76°
2026-05-03 20:58 -3.63950 -53.71928 6906 ft 155 kts 76°
2026-05-03 20:59 -3.63675 -53.70887 6907 ft 155 kts 76°
2026-05-03 20:59 -3.63398 -53.69841 6907 ft 156 kts 76°
2026-05-03 20:59 -3.63121 -53.68790 6900 ft 156 kts 76°
2026-05-03 20:59 -3.62843 -53.67742 6905 ft 156 kts 76°
2026-05-03 21:00 -3.62567 -53.66694 6906 ft 155 kts 76°
2026-05-03 21:00 -3.62383 -53.66002 6908 ft 156 kts 76°
2026-05-03 21:00 -3.62011 -53.64594 6909 ft 156 kts 76°
2026-05-03 21:00 -3.61732 -53.63541 6907 ft 156 kts 76°
2026-05-03 21:01 -3.61455 -53.62491 6908 ft 156 kts 76°
2026-05-03 21:01 -3.61176 -53.61439 6906 ft 156 kts 76°
2026-05-03 21:01 -3.60900 -53.60390 6905 ft 156 kts 76°
2026-05-03 21:01 -3.60622 -53.59342 6904 ft 156 kts 76°
2026-05-03 21:02 -3.60345 -53.58295 6898 ft 156 kts 76°
2026-05-03 21:02 -3.60068 -53.57249 6907 ft 156 kts 76°
2026-05-03 21:02 -3.59790 -53.56200 6906 ft 156 kts 76°
2026-05-03 21:02 -3.59517 -53.55168 6906 ft 156 kts 76°
2026-05-03 21:03 -3.59240 -53.54119 6906 ft 155 kts 76°
2026-05-03 21:03 -3.58964 -53.53075 6902 ft 155 kts 76°
2026-05-03 21:03 -3.58687 -53.52030 6899 ft 155 kts 76°
2026-05-03 21:03 -3.58411 -53.50987 6901 ft 155 kts 76°
2026-05-03 21:04 -3.58137 -53.49951 6904 ft 153 kts 76°
2026-05-03 21:04 -3.57864 -53.48918 6901 ft 154 kts 76°
2026-05-03 21:04 -3.57590 -53.47883 6904 ft 154 kts 76°
2026-05-03 21:04 -3.57317 -53.46850 6898 ft 154 kts 76°
2026-05-03 21:05 -3.57042 -53.45816 6905 ft 154 kts 76°
2026-05-03 21:05 -3.56770 -53.44782 6901 ft 154 kts 76°
2026-05-03 21:05 -3.56494 -53.43742 6904 ft 155 kts 76°
2026-05-03 21:05 -3.56218 -53.42701 6906 ft 154 kts 76°
2026-05-03 21:06 -3.55943 -53.41662 6907 ft 154 kts 76°
2026-05-03 21:06 -3.55669 -53.40624 6907 ft 154 kts 76°
2026-05-03 21:06 -3.55394 -53.39588 6907 ft 154 kts 76°
2026-05-03 21:06 -3.55123 -53.38566 6909 ft 154 kts 76°
2026-05-03 21:07 -3.54850 -53.37532 6908 ft 154 kts 76°
2026-05-03 21:07 -3.54576 -53.36501 6907 ft 153 kts 76°
2026-05-03 21:07 -3.54304 -53.35470 6908 ft 153 kts 76°
2026-05-03 21:07 -3.54031 -53.34440 6908 ft 153 kts 76°
2026-05-03 21:08 -3.53757 -53.33404 6910 ft 154 kts 76°
2026-05-03 21:08 -3.53481 -53.32367 6910 ft 154 kts 76°
2026-05-03 21:08 -3.53207 -53.31331 6911 ft 154 kts 76°
2026-05-03 21:08 -3.52933 -53.30293 6912 ft 154 kts 76°
2026-05-03 21:09 -3.52658 -53.29257 6908 ft 154 kts 76°
2026-05-03 21:09 -3.52384 -53.28222 6907 ft 153 kts 76°
2026-05-03 21:09 -3.52111 -53.27194 6908 ft 153 kts 76°
2026-05-03 21:09 -3.51838 -53.26163 6908 ft 154 kts 76°
2026-05-03 21:10 -3.51564 -53.25126 6906 ft 154 kts 76°
2026-05-03 21:10 -3.51293 -53.24104 6904 ft 154 kts 76°
2026-05-03 21:10 -3.51020 -53.23073 6906 ft 153 kts 76°
2026-05-03 21:10 -3.50745 -53.22040 6905 ft 154 kts 76°
2026-05-03 21:11 -3.50470 -53.21000 6905 ft 155 kts 76°
2026-05-03 21:11 -3.50192 -53.19949 6908 ft 154 kts 76°
2026-05-03 21:11 -3.49922 -53.18927 6908 ft 154 kts 76°
2026-05-03 21:11 -3.49647 -53.17893 6906 ft 154 kts 76°
2026-05-03 21:12 -3.49372 -53.16858 6906 ft 154 kts 76°
2026-05-03 21:12 -3.49098 -53.15822 6907 ft 155 kts 76°
2026-05-03 21:12 -3.48822 -53.14781 6909 ft 155 kts 76°
2026-05-03 21:12 -3.48547 -53.13742 6908 ft 154 kts 76°
2026-05-03 21:13 -3.48273 -53.12709 6907 ft 153 kts 76°
2026-05-03 21:13 -3.48000 -53.11683 6909 ft 153 kts 76°
2026-05-03 21:13 -3.47727 -53.10651 6907 ft 154 kts 76°
2026-05-03 21:13 -3.47453 -53.09616 6910 ft 154 kts 76°
2026-05-03 21:14 -3.47179 -53.08581 6911 ft 154 kts 76°
2026-05-03 21:14 -3.46904 -53.07545 6911 ft 154 kts 76°
2026-05-03 21:14 -3.46628 -53.06507 6912 ft 154 kts 76°
2026-05-03 21:14 -3.46353 -53.05468 6911 ft 155 kts 76°
2026-05-03 21:15 -3.46077 -53.04427 6909 ft 155 kts 76°
2026-05-03 21:15 -3.45800 -53.03383 6908 ft 155 kts 76°
2026-05-03 21:15 -3.45524 -53.02345 6908 ft 154 kts 76°
2026-05-03 21:15 -3.45249 -53.01305 6908 ft 154 kts 76°
2026-05-03 21:16 -3.44973 -53.00266 6913 ft 155 kts 76°
2026-05-03 21:16 -3.44694 -52.99225 6913 ft 155 kts 76°
2026-05-03 21:16 -3.44418 -52.98177 6913 ft 156 kts 76°
2026-05-03 21:16 -3.44141 -52.97130 6913 ft 156 kts 76°
2026-05-03 21:17 -3.43862 -52.96083 6912 ft 156 kts 76°
2026-05-03 21:17 -3.43679 -52.95388 6913 ft 156 kts 76°
2026-05-03 21:17 -3.43308 -52.93987 6912 ft 156 kts 76°
2026-05-03 21:17 -3.43033 -52.92953 6911 ft 156 kts 76°
2026-05-03 21:18 -3.42754 -52.91902 6910 ft 156 kts 76°
2026-05-03 21:18 -3.42478 -52.90859 6913 ft 155 kts 76°
2026-05-03 21:18 -3.42201 -52.89817 6912 ft 155 kts 76°
2026-05-03 21:18 -3.41924 -52.88775 6911 ft 154 kts 76°
2026-05-03 21:19 -3.41649 -52.87737 6912 ft 155 kts 76°
2026-05-03 21:19 -3.41372 -52.86696 6910 ft 155 kts 76°
2026-05-03 21:19 -3.41190 -52.86007 6910 ft 154 kts 76°
2026-05-03 21:19 -3.40820 -52.84613 6912 ft 155 kts 76°
2026-05-03 21:20 -3.40542 -52.83567 6912 ft 156 kts 76°
2026-05-03 21:20 -3.40359 -52.82875 6912 ft 155 kts 76°
2026-05-03 21:20 -3.40082 -52.81834 6912 ft 154 kts 76°
2026-05-03 21:20 -3.39806 -52.80797 6913 ft 154 kts 76°
2026-05-03 21:21 -3.39531 -52.79754 6912 ft 155 kts 76°
2026-05-03 21:21 -3.39253 -52.78709 6911 ft 155 kts 76°
2026-05-03 21:21 -3.38976 -52.77667 6910 ft 155 kts 76°
2026-05-03 21:21 -3.38699 -52.76624 6910 ft 155 kts 76°
2026-05-03 21:22 -3.38424 -52.75590 6912 ft 154 kts 76°
2026-05-03 21:22 -3.38150 -52.74559 6914 ft 153 kts 76°
2026-05-03 21:22 -3.37876 -52.73528 6914 ft 153 kts 76°
2026-05-03 21:22 -3.37603 -52.72496 6914 ft 153 kts 76°
2026-05-03 21:23 -3.37329 -52.71465 6911 ft 153 kts 76°
2026-05-03 21:23 -3.37055 -52.70433 6910 ft 154 kts 76°
2026-05-03 21:23 -3.36780 -52.69398 6910 ft 154 kts 76°
2026-05-03 21:23 -3.36509 -52.68374 6911 ft 154 kts 76°
2026-05-03 21:24 -3.36232 -52.67336 6914 ft 154 kts 76°
2026-05-03 21:24 -3.35959 -52.66302 6912 ft 154 kts 76°
2026-05-03 21:24 -3.35684 -52.65267 6912 ft 154 kts 76°
2026-05-03 21:24 -3.35411 -52.64233 6911 ft 154 kts 76°
2026-05-03 21:25 -3.35136 -52.63199 6913 ft 154 kts 76°
2026-05-03 21:25 -3.34861 -52.62160 6878 ft 156 kts 76°
2026-05-03 21:25 -3.34580 -52.61098 6812 ft 159 kts 76°
2026-05-03 21:25 -3.34295 -52.60024 6743 ft 160 kts 76°
2026-05-03 21:26 -3.34007 -52.58941 6677 ft 161 kts 76°
2026-05-03 21:26 -3.33720 -52.57854 6609 ft 162 kts 76°
2026-05-03 21:26 -3.33431 -52.56765 6540 ft 162 kts 76°
2026-05-03 21:26 -3.33144 -52.55680 6469 ft 161 kts 76°
2026-05-03 21:27 -3.32855 -52.54595 6404 ft 162 kts 76°
2026-05-03 21:27 -3.32567 -52.53510 6335 ft 161 kts 76°
2026-05-03 21:27 -3.32280 -52.52425 6242 ft 162 kts 76°
2026-05-03 21:27 -3.31988 -52.51325 6122 ft 164 kts 76°
2026-05-03 21:28 -3.31695 -52.50216 5998 ft 165 kts 76°
2026-05-03 21:28 -3.31399 -52.49101 5849 ft 166 kts 76°
2026-05-03 21:28 -3.31102 -52.47984 5720 ft 166 kts 76°
2026-05-03 21:28 -3.30806 -52.46867 5599 ft 166 kts 76°
2026-05-03 21:29 -3.30509 -52.45751 5475 ft 166 kts 76°
2026-05-03 21:29 -3.30217 -52.44650 5353 ft 166 kts 76°
2026-05-03 21:29 -3.29918 -52.43519 5228 ft 166 kts 76°
2026-05-03 21:29 -3.29625 -52.42416 5105 ft 166 kts 76°
2026-05-03 21:30 -3.29329 -52.41300 4981 ft 166 kts 76°
2026-05-03 21:30 -3.29032 -52.40183 4858 ft 165 kts 76°
2026-05-03 21:30 -3.28737 -52.39072 4736 ft 165 kts 76°
2026-05-03 21:30 -3.28444 -52.37964 4613 ft 163 kts 75°
2026-05-03 21:31 -3.28155 -52.36877 4481 ft 161 kts 76°
2026-05-03 21:31 -3.27864 -52.35782 4364 ft 163 kts 76°
2026-05-03 21:31 -3.27573 -52.34682 4237 ft 164 kts 76°
2026-05-03 21:31 -3.27281 -52.33580 4108 ft 163 kts 75°
2026-05-03 21:32 -3.26987 -52.32486 3990 ft 164 kts 76°
2026-05-03 21:32 -3.26699 -52.31387 3936 ft 161 kts 76°
2026-05-03 21:32 -3.26413 -52.30311 3930 ft 160 kts 75°
2026-05-03 21:32 -3.26129 -52.29241 3924 ft 158 kts 75°
2026-05-03 21:33 -3.25847 -52.28181 3925 ft 157 kts 75°
2026-05-03 21:33 -3.25568 -52.27130 3919 ft 156 kts 76°
2026-05-03 21:33 -3.25290 -52.26082 3917 ft 156 kts 75°
2026-05-03 21:33 -3.25006 -52.25036 3917 ft 156 kts 72°
2026-05-03 21:34 -3.24687 -52.24019 3916 ft 155 kts 74°
2026-05-03 21:34 -3.24387 -52.22989 3917 ft 154 kts 74°
2026-05-03 21:34 -3.24083 -52.21956 3916 ft 155 kts 74°
2026-05-03 21:34 -3.23776 -52.20927 3914 ft 154 kts 74°
2026-05-03 21:35 -3.23470 -52.19901 3926 ft 154 kts 73°
2026-05-03 21:35 -3.23163 -52.18876 3915 ft 154 kts 73°
2026-05-03 21:35 -3.22856 -52.17851 3915 ft 154 kts 73°
2026-05-03 21:35 -3.22550 -52.16827 3915 ft 154 kts 73°
2026-05-03 21:36 -3.22244 -52.15807 3916 ft 147 kts 74°
2026-05-03 21:36 -3.21977 -52.14902 3914 ft 127 kts 74°
2026-05-03 21:36 -3.21735 -52.14093 3921 ft 117 kts 74°
2026-05-03 21:36 -3.21507 -52.13332 3927 ft 111 kts 74°
2026-05-03 21:37 -3.21283 -52.12585 3844 ft 115 kts 74°
2026-05-03 21:37 -3.21051 -52.11807 3721 ft 118 kts 73°
2026-05-03 21:37 -3.20813 -52.11012 3608 ft 120 kts 74°
2026-05-03 21:37 -3.20573 -52.10211 3494 ft 121 kts 73°
2026-05-03 21:38 -3.20331 -52.09401 3379 ft 122 kts 73°
2026-05-03 21:38 -3.20086 -52.08586 3260 ft 122 kts 73°
2026-05-03 21:38 -3.19842 -52.07772 3145 ft 122 kts 73°
2026-05-03 21:38 -3.19554 -52.06973 3026 ft 123 kts 58°
2026-05-03 21:39 -3.18868 -52.06462 2909 ft 127 kts 21°
2026-05-03 21:39 -3.17985 -52.06464 2792 ft 132 kts 345°
2026-05-03 21:39 -3.17274 -52.07030 2669 ft 137 kts 307°
2026-05-03 21:39 -3.16780 -52.07857 2555 ft 137 kts 306°
2026-05-03 21:40 -3.16280 -52.08651 2440 ft 137 kts 306°
2026-05-03 21:40 -3.15773 -52.09459 2324 ft 137 kts 306°
2026-05-03 21:40 -3.15268 -52.10265 2202 ft 136 kts 306°
2026-05-03 21:40 -3.14846 -52.11109 2145 ft 136 kts 284°
2026-05-03 21:41 -3.14929 -52.12030 2138 ft 133 kts 251°
2026-05-03 21:41 -3.15439 -52.12797 2136 ft 132 kts 229°
2026-05-03 21:41 -3.16008 -52.13513 2131 ft 131 kts 232°
2026-05-03 21:41 -3.16576 -52.14239 2132 ft 134 kts 231°
2026-05-03 21:42 -3.17158 -52.14980 2132 ft 136 kts 231°
2026-05-03 21:42 -3.17743 -52.15724 2133 ft 137 kts 231°
2026-05-03 21:42 -3.18336 -52.16480 2132 ft 139 kts 231°
2026-05-03 21:42 -3.18942 -52.17250 2061 ft 144 kts 231°
2026-05-03 21:43 -3.19576 -52.18061 1889 ft 151 kts 232°
2026-05-03 21:43 -3.20219 -52.18884 1698 ft 147 kts 232°
2026-05-03 21:43 -3.20841 -52.19676 1511 ft 143 kts 232°
2026-05-03 21:43 -3.21432 -52.20430 1338 ft 129 kts 232°
2026-05-03 21:44 -3.21952 -52.21095 1183 ft 115 kts 231°
2026-05-03 21:44 -3.22435 -52.21707 1055 ft 109 kts 232°
2026-05-03 21:44 -3.22866 -52.22257 945 ft 94 kts 232°
2026-05-03 21:44 -3.23244 -52.22747 836 ft 85 kts 234°
2026-05-03 21:45 -3.23551 -52.23221 732 ft 77 kts 228°
2026-05-03 21:45 -3.23896 -52.23604 627 ft 74 kts 231°
2026-05-03 21:45 -3.24188 -52.24032 587 ft 77 kts 227°
2026-05-03 21:45 -3.24539 -52.24424 544 ft 72 kts 227°
2026-05-03 21:46 -3.24843 -52.24810 388 ft 68 kts 223°
2026-05-03 21:46 -3.25027 -52.25030 375 ft 5 kts 228°
2026-05-03 21:46 -3.25053 -52.25062 376 ft 3 kts 240°
2026-05-03 21:46 -3.25103 -52.25126 376 ft 12 kts 219°
2026-05-03 21:47 -3.25168 -52.25122 375 ft 13 kts 148°
2026-05-03 21:47 -3.25227 -52.25075 373 ft 12 kts 142°
2026-05-03 21:47 -3.25279 -52.25038 373 ft 7 kts 143°
2026-05-03 21:47 -3.25294 -52.25007 373 ft 3 kts 81°
2026-05-03 21:48 -3.25285 -52.24983 373 ft 8 kts 87°
2026-05-03 21:48 -3.25299 -52.24967 372 ft 1 kts 132°
2026-05-03 21:48 -3.25305 -52.24955 372 ft 0 kts 147°